Radiation Dose at Monitoring Post of Fukushima Daini Nuclear Power Station
Date,Time,MP-1(microSv/h),MP-2(microSv/h),MP-3(microSv/h),MP-4(microSv/h),MP-5(microSv/h),MP-6(microSv/h),MP-7(microSv/h),Wind Direction,Wind Velocity(m/s),Rain
2012/12/04,00:00,1.1,0.7,1.1,1.0,1.0,0.5,0.4,south-southeast,1.8,No
2012/12/04,00:10,1.1,0.7,1.1,1.0,1.0,0.5,0.4,southeast,1.4,No
2012/12/04,00:20,1.1,0.7,1.1,1.0,1.0,0.5,0.4,south-southwest,1.9,No
2012/12/04,00:30,1.1,0.7,1.1,1.0,1.0,0.5,0.4,southwest,1.3,No
2012/12/04,00:40,1.1,0.7,1.1,1.0,1.0,0.5,0.4,south-southwest,1.1,No
2012/12/04,00:50,1.1,0.7,1.1,1.0,1.0,0.5,0.4,southwest,0.8,Yes
2012/12/04,01:00,1.1,0.7,1.1,1.0,1.0,0.5,0.4,west,2.5,No
2012/12/04,01:10,1.1,0.7,1.1,1.0,1.0,0.5,0.4,west,2.9,Yes
2012/12/04,01:20,1.1,0.7,1.1,1.0,1.0,0.5,0.4,west-northwest,1.7,Yes
2012/12/04,01:30,1.1,0.7,1.1,1.0,1.0,0.5,0.4,west-southwest,1.0,Yes
2012/12/04,01:40,1.1,0.7,1.1,1.0,1.0,0.5,0.4,west,0.9,Yes
2012/12/04,01:50,1.1,0.7,1.1,1.0,1.0,0.5,0.4,northwest,0.8,Yes
2012/12/04,02:00,1.1,0.7,1.1,1.0,1.0,0.5,0.4,north,0.6,No
2012/12/04,02:10,1.1,0.7,1.1,1.0,1.0,0.5,0.4,-,CALM,Yes
2012/12/04,02:20,1.1,0.7,1.1,1.0,1.0,0.5,0.4,-,CALM,Yes
2012/12/04,02:30,1.1,0.7,1.1,1.0,1.0,0.5,0.4,northwest,0.8,Yes
2012/12/04,02:40,1.1,0.7,1.1,1.0,1.0,0.5,0.4,west-northwest,1.1,Yes
2012/12/04,02:50,1.1,0.7,1.1,1.0,1.0,0.5,0.4,north-northwest,1.1,Yes
2012/12/04,03:00,1.1,0.7,1.1,1.0,1.0,0.5,0.4,north-northwest,0.8,Yes
2012/12/04,03:10,1.1,0.7,1.1,1.0,1.0,0.5,0.4,northwest,1.0,No
2012/12/04,03:20,1.1,0.7,1.1,1.0,1.0,0.5,0.4,west,1.0,No
2012/12/04,03:30,1.1,0.7,1.1,1.0,1.0,0.5,0.4,-,CALM,No
2012/12/04,03:40,1.1,0.7,1.1,1.0,1.0,0.5,0.4,-,CALM,No
2012/12/04,03:50,1.1,0.7,1.1,1.0,1.0,0.5,0.4,southwest,1.7,No
2012/12/04,04:00,1.1,0.7,1.1,1.0,1.0,0.5,0.4,west-southwest,1.1,No
2012/12/04,04:10,1.1,0.7,1.1,1.0,1.0,0.5,0.4,southwest,1.6,No
2012/12/04,04:20,1.1,0.7,1.1,1.0,1.0,0.5,0.4,southwest,1.9,No
2012/12/04,04:30,1.1,0.7,1.1,1.0,1.0,0.5,0.4,southwest,2.8,Yes
2012/12/04,04:40,1.1,0.7,1.1,1.0,1.0,0.5,0.4,south-southwest,2.5,Yes
2012/12/04,04:50,1.1,0.7,1.1,1.0,1.0,0.5,0.4,south-southwest,2.3,Yes
2012/12/04,05:00,1.1,0.7,1.1,1.0,1.0,0.5,0.4,south-southwest,1.4,Yes
2012/12/04,05:10,1.1,0.7,1.1,1.0,1.0,0.5,0.4,west-southwest,2.0,No
2012/12/04,05:20,1.1,0.7,1.1,1.0,1.0,0.5,0.4,southwest,2.8,No
2012/12/04,05:30,1.1,0.7,1.1,1.0,1.0,0.5,0.4,southwest,2.7,No
2012/12/04,05:40,1.1,0.7,1.1,1.0,1.0,0.5,0.4,southwest,1.4,No
2012/12/04,05:50,1.1,0.7,1.1,1.0,1.0,0.5,0.4,southwest,2.0,No
2012/12/04,06:00,1.1,0.7,1.1,1.0,1.0,0.5,0.4,southwest,2.4,No
2012/12/04,06:10,1.1,0.7,1.1,1.0,1.0,0.5,0.4,south,3.2,No
2012/12/04,06:20,1.1,0.7,1.1,1.0,1.0,0.5,0.4,south-southwest,3.2,No
2012/12/04,06:30,1.1,0.7,1.1,1.0,1.0,0.5,0.4,south-southwest,3.4,No
2012/12/04,06:40,1.1,0.7,1.1,1.0,1.0,0.5,0.4,south,2.1,No
2012/12/04,06:50,1.1,0.7,1.1,1.0,1.0,0.5,0.4,south-southwest,3.3,No
2012/12/04,07:00,1.1,0.7,1.1,1.0,1.0,0.5,0.4,south-southwest,2.1,No
2012/12/04,07:10,1.1,0.7,1.1,1.0,1.0,0.5,0.4,south,1.9,No
2012/12/04,07:20,1.1,0.7,1.1,1.0,1.0,0.5,0.4,south,2.5,No
2012/12/04,07:30,1.1,0.7,1.1,1.0,1.0,0.5,0.4,south,1.9,No
2012/12/04,07:40,1.1,0.7,1.1,1.0,1.0,0.5,0.4,south,2.7,No
2012/12/04,07:50,1.1,0.7,1.1,1.0,1.0,0.5,0.4,south,3.4,No
2012/12/04,08:00,1.1,0.7,1.1,1.0,1.0,0.5,0.4,south-southwest,4.6,No
2012/12/04,08:10,1.1,0.7,1.1,1.0,1.0,0.5,0.4,south,4.2,No
2012/12/04,08:20,1.1,0.7,1.1,1.0,1.0,0.5,0.4,south-southeast,4.7,No
2012/12/04,08:30,1.1,0.7,1.1,1.0,1.0,0.5,0.4,south,6.3,No
2012/12/04,08:40,1.1,0.7,1.1,1.0,1.0,0.5,0.4,south,5.9,No
2012/12/04,08:50,1.1,0.7,1.1,1.0,1.0,0.5,0.4,south,7.5,No
2012/12/04,09:00,1.1,0.7,1.1,1.0,1.0,0.5,0.4,south,8.1,No
2012/12/04,09:10,1.1,0.7,1.1,1.0,1.0,0.5,0.4,south,7.5,No
2012/12/04,09:20,1.1,0.7,1.1,1.0,1.0,0.5,0.4,south,6.7,No
2012/12/04,09:30,1.1,0.7,1.1,1.0,1.0,0.5,0.4,south,7.5,No
2012/12/04,09:40,1.1,0.7,1.1,1.0,1.0,0.5,0.4,south-southwest,10.1,Yes
2012/12/04,09:50,1.1,0.7,1.1,1.0,1.0,0.5,0.4,south-southwest,13.2,Yes
2012/12/04,10:00,1.1,0.7,1.1,1.0,1.0,0.5,0.4,south-southwest,9.6,Yes
2012/12/04,10:10,1.1,0.7,1.1,1.0,1.0,0.5,0.4,south-southwest,11.6,Yes
2012/12/04,10:20,1.1,0.7,1.1,1.0,1.0,0.5,0.4,south-southwest,12.4,Yes
2012/12/04,10:30,1.1,0.7,1.1,1.0,1.0,0.5,0.4,south-southwest,11.6,Yes
2012/12/04,10:40,1.1,0.7,1.1,1.0,1.0,0.5,0.4,south-southwest,10.0,Yes
2012/12/04,10:50,1.1,0.7,1.1,1.0,1.0,0.5,0.4,south-southwest,10.1,Yes
2012/12/04,11:00,1.1,0.7,1.1,1.0,1.0,0.5,0.4,south-southwest,9.5,Yes
2012/12/04,11:10,1.1,0.7,1.1,1.0,1.0,0.5,0.4,south-southwest,9.3,Yes
2012/12/04,11:20,1.1,0.7,1.1,1.0,1.0,0.5,0.4,south-southwest,7.6,Yes
2012/12/04,11:30,1.1,0.7,1.1,1.0,1.0,0.5,0.4,south-southwest,7.1,Yes
2012/12/04,11:40,1.1,0.7,1.1,1.0,1.0,0.5,0.4,west-southwest,5.3,Yes
2012/12/04,11:50,1.1,0.7,1.1,1.0,1.0,0.5,0.4,west-southwest,3.2,Yes
2012/12/04,12:00,1.1,0.7,1.1,1.0,1.0,0.5,0.4,west-northwest,2.8,Yes
2012/12/04,12:10,1.1,0.7,1.1,1.0,1.0,0.5,0.4,west,7.0,Yes
2012/12/04,12:20,1.1,0.7,1.1,1.0,1.0,0.5,0.4,west-northwest,8.0,Yes
2012/12/04,12:30,1.1,0.7,1.1,1.0,1.0,0.5,0.4,west-northwest,7.3,Yes
2012/12/04,12:40,1.1,0.7,1.1,1.0,1.0,0.5,0.4,west-northwest,7.8,Yes
2012/12/04,12:50,1.1,0.7,1.1,1.0,1.0,0.5,0.4,west-northwest,10.2,Yes
2012/12/04,13:00,1.1,0.7,1.1,1.0,1.0,0.5,0.4,west-northwest,9.5,Yes
2012/12/04,13:10,1.1,0.7,1.1,1.0,1.0,0.5,0.4,west-northwest,7.6,Yes
2012/12/04,13:20,1.1,0.7,1.1,1.0,1.0,0.5,0.4,north-northwest,7.9,Yes
2012/12/04,13:30,1.1,0.7,1.1,1.0,1.0,0.5,0.4,north-northwest,8.1,Yes
2012/12/04,13:40,1.1,0.7,1.1,1.0,1.0,0.5,0.4,north,6.5,Yes
2012/12/04,13:50,1.1,0.7,1.1,1.0,1.0,0.5,0.4,north,6.9,No
2012/12/04,14:00,1.1,0.7,1.1,1.0,1.0,0.5,0.4,north-northwest,6.2,Yes
2012/12/04,14:10,1.1,0.7,1.1,1.0,1.0,0.5,0.4,north-northwest,7.8,Yes
2012/12/04,14:20,1.1,0.7,1.1,1.0,1.0,0.5,0.4,north,8.6,Yes
2012/12/04,14:30,1.1,0.7,1.1,1.0,1.0,0.5,0.4,north,9.8,Yes
2012/12/04,14:40,1.1,0.7,1.1,1.0,1.0,0.5,0.4,north,10.7,No
2012/12/04,14:50,1.1,0.7,1.1,1.0,1.0,0.5,0.4,north,9.1,Yes
2012/12/04,15:00,1.1,0.7,1.1,1.0,1.0,0.5,0.4,north-northwest,5.3,Yes
2012/12/04,15:10,1.1,0.7,1.1,1.0,1.0,0.5,0.4,north-northwest,4.9,Yes
2012/12/04,15:20,1.1,0.7,1.1,1.0,1.0,0.5,0.4,north-northwest,6.4,Yes
2012/12/04,15:30,1.1,0.7,1.1,1.0,1.0,0.5,0.4,north-northwest,7.5,No
2012/12/04,15:40,1.1,0.7,1.1,1.0,1.0,0.5,0.4,north,6.9,No
2012/12/04,15:50,1.1,0.7,1.1,1.0,1.0,0.5,0.4,north-northwest,7.7,Yes
2012/12/04,16:00,1.1,0.7,1.1,1.0,1.0,0.5,0.4,north-northwest,7.3,No
2012/12/04,16:10,1.1,0.7,1.1,1.0,1.0,0.5,0.4,north-northwest,7.8,No
2012/12/04,16:20,1.1,0.7,1.1,1.0,1.0,0.5,0.4,north-northwest,11.2,No
2012/12/04,16:30,1.1,0.7,1.1,1.0,1.0,0.5,0.4,north-northwest,12.4,No
2012/12/04,16:40,1.1,0.7,1.1,1.0,1.0,0.5,0.4,north-northwest,11.1,No
2012/12/04,16:50,1.1,0.7,1.1,1.0,1.0,0.5,0.4,north-northwest,9.5,No
2012/12/04,17:00,1.1,0.7,1.1,1.0,1.0,0.5,0.4,north-northwest,11.2,No
2012/12/04,17:10,1.1,0.7,1.1,1.0,1.0,0.5,0.4,northwest,11.0,No
2012/12/04,17:20,1.1,0.7,1.1,1.0,1.0,0.5,0.4,north-northwest,10.5,No
2012/12/04,17:30,1.1,0.7,1.1,1.0,1.0,0.5,0.4,north-northwest,11.2,No
2012/12/04,17:40,1.1,0.7,1.1,1.0,1.0,0.5,0.4,north-northwest,10.5,No
2012/12/04,17:50,1.1,0.7,1.1,1.0,1.0,0.5,0.4,north-northwest,9.2,No
2012/12/04,18:00,1.1,0.7,1.1,1.0,1.0,0.5,0.4,north-northwest,7.7,No
2012/12/04,18:10,1.1,0.7,1.1,1.0,1.0,0.5,0.4,north-northwest,9.3,No
2012/12/04,18:20,1.1,0.7,1.1,1.0,1.0,0.5,0.4,north-northwest,7.4,No
2012/12/04,18:30,1.1,0.7,1.1,1.0,1.0,0.5,0.4,north,5.8,No
2012/12/04,18:40,1.1,0.7,1.1,1.0,1.0,0.5,0.4,north-northwest,5.0,No
2012/12/04,18:50,1.1,0.7,1.1,1.0,1.0,0.5,0.4,north,7.2,No
2012/12/04,19:00,1.1,0.7,1.1,1.0,1.0,0.5,0.4,north-northwest,9.5,No
2012/12/04,19:10,1.1,0.7,1.1,1.0,1.0,0.5,0.4,north,6.7,No
2012/12/04,19:20,1.1,0.7,1.1,1.0,1.0,0.5,0.4,north-northwest,6.5,No
2012/12/04,19:30,1.1,0.7,1.1,1.0,1.0,0.5,0.4,northwest,8.2,No
2012/12/04,19:40,1.1,0.7,1.1,1.0,1.0,0.5,0.4,northwest,7.3,No
2012/12/04,19:50,1.1,0.7,1.1,1.0,1.0,0.5,0.4,northwest,8.3,No
2012/12/04,20:00,1.1,0.7,1.1,1.0,1.0,0.5,0.4,northwest,7.8,No
2012/12/04,20:10,1.1,0.7,1.1,1.0,1.0,0.5,0.4,northwest,7.3,No
2012/12/04,20:20,1.1,0.7,1.1,1.0,1.0,0.5,0.4,northwest,11.5,No
2012/12/04,20:30,1.1,0.7,1.1,1.0,1.0,0.5,0.4,northwest,8.6,No
2012/12/04,20:40,1.1,0.7,1.1,1.0,1.0,0.5,0.4,north-northwest,9.8,No
2012/12/04,20:50,1.1,0.7,1.1,1.0,1.0,0.5,0.4,north-northwest,8.8,No
2012/12/04,21:00,1.1,0.7,1.1,1.0,1.0,0.5,0.4,north-northwest,6.0,No
2012/12/04,21:10,1.1,0.7,1.1,1.0,1.0,0.5,0.4,north-northwest,8.6,No
2012/12/04,21:20,1.1,0.7,1.1,1.0,1.0,0.5,0.4,northwest,3.5,No
2012/12/04,21:30,1.1,0.7,1.1,1.0,1.0,0.5,0.4,northwest,3.5,No
2012/12/04,21:40,1.1,0.7,1.1,1.0,1.0,0.5,0.4,northwest,4.0,No
2012/12/04,21:50,1.1,0.7,1.1,1.0,1.0,0.5,0.4,north-northwest,2.6,No
2012/12/04,22:00,1.1,0.7,1.1,1.0,1.0,0.5,0.4,northwest,5.6,No
2012/12/04,22:10,1.1,0.7,1.1,1.0,1.0,0.5,0.4,west-northwest,7.6,No
2012/12/04,22:20,1.1,0.7,1.1,1.0,1.0,0.5,0.4,northwest,7.1,No
2012/12/04,22:30,1.1,0.7,1.1,1.0,1.0,0.5,0.4,northwest,9.8,No
2012/12/04,22:40,1.1,0.7,1.1,1.0,1.0,0.5,0.4,west-northwest,7.5,No
2012/12/04,22:50,1.1,0.7,1.1,1.0,1.0,0.5,0.4,west-northwest,6.9,No
2012/12/04,23:00,1.1,0.7,1.1,1.0,1.0,0.5,0.4,northwest,7.7,No
2012/12/04,23:10,1.1,0.7,1.1,1.0,1.0,0.5,0.4,northwest,6.2,No
2012/12/04,23:20,1.1,0.7,1.1,1.0,1.0,0.5,0.4,northwest,5.1,No
2012/12/04,23:30,1.1,0.7,1.1,1.0,1.0,0.5,0.4,west-northwest,7.8,No
2012/12/04,23:40,1.1,0.7,1.1,1.0,1.0,0.5,0.4,west,9.5,No
2012/12/04,23:50,1.1,0.7,1.1,1.0,1.0,0.5,0.4,west,7.5,No
